Location: ????????
(55.6333°N, 37.7000°E)
Time: 14:41:04
(UTC+00:00)

Meteor 1-12 Rocket - Pass Details

Date: 19 May 2025
Orbit: 854 x 925 km, 81.2° (Epoch: 21 June)

Event Time Altitude Azimuth Distance (km) Brightness Sun altitude
Rises 23:12:33 0° 343° (NNW) 3,442 8.2 -11.1°
Reaches altitude 10° 23:15:01 10° 339° (NNW) 2,504 7.3 -10.9°
Maximum altitude 23:20:32 56° 264° (W) 1,029 4.5 -10.6°
Enters shadow 23:25:55 11° 188° (S) 2,451 6.0 -10.2°
